Location: Limerick
(52.6650°N, 8.6230°W)
Time: 17:28:05
(UTC+01:00)

Envisat - Visible Passes

Search period start: 20 July 2017 00:00
Search period end: 30 July 2017 00:00
Orbit: 764 x 766 km, 98.2° (Epoch: 19 July)

Date Brightness Start Highest point End Pass type
(mag) Time Alt. Az. Time Alt. Az. Time Alt. Az.
21 Jul 5.5 22:48:36 10° SW 22:52:00 18° W 22:55:24 10° NW visible
23 Jul 5.9 23:16:48 10° W 23:18:02 11° W 23:19:15 10° WNW visible
24 Jul 5.3 22:36:55 10° SW 22:40:46 21° W 22:44:38 10° NW visible
26 Jul 5.7 23:04:18 10° WSW 23:06:45 13° W 23:09:12 10° NW visible
27 Jul 5.1 22:25:21 10° SSW 22:29:33 26° W 22:33:47 10° NW visible
29 Jul 5.6 22:52:20 10° SW 22:55:30 16° W 22:58:40 10° NW visible
